Probability
0 0 0 0 0 0 0 0 0 0 0 0 0 0 0 0 0 0 0 0 0 0 0 0 0 0 0 0 0 0 0 0 0 0 0 0 0 0 0 0 0 0 0
0 0 0 0 0 0 0 0 0 0 0 0 0 0 0 0 0 0 0 0 0 0 0 0 0 0 0 0 0 0 0 0 0 0 0 0 0 0 0 0 0 0 0
0 0 0 0 0 0 0 0 0 0 0 0 0 0 0 0 0 0 0 0 0 0 0 0 0 0 0 0 0 0 0 0 0 0 0 0 0 0 0 0 0 0 0
0 0 0 0 0 0 0 0 0 0 0 0 0 0 0 0 0 0 0 0 0 0 0 0 0 0 0 0 0 0 0 0 0 0 0 0 0 0 0 0 0 0 0
0 0 0 0 0 0 0 0 0 0 0 0 0 0 0 0 0 0 0 0 0 0 0 0 0 0 0 0 0 0 0 0 0 0 0 0 0 0 0 0 0 0 0
0 0 0 0 0 0 0 0 0 0 0 0 0 0 0 0 0 0 0 0 0 0 0 0 0 0 0 0 0 0 0 0 0 0 0 0 0 0 0 0 0 0 0
0 0 0 0 0 0 0 0 0 0 0 0 0 0 0 0 0 0 0 0 0 0 0 0 0 0 0 0 0 0 0 0 0 0 0 0 0 0 0 0 0 0 0
0 0 0 0 0 0 0 0 0 0 0 0 0 0 0 0 0 0 0 0 0 0 0 0 0 0 0 0 0 0 0 0 0 0 0 0 0 0 0 0 0 0 0
0 0 0 0 0 0 0 0 0 0 0 0 0 0 0 0 0 0 0 0 0 0 0 0 0 0 0 0 0 0 0 0 0 0 0 0 0 0 0 0 0 0 0
0 0 0 0 0 0 0 0 0 0 0 0 0 0 0 0 0 0 0 0 0 0 0 0 0 0 0 0 0 0 0 0 0 0 0 0 0 0 0 0 0 0 0
0 0 0 0 0 0 0 0 0 0 0 0 0 0 0 0 0 0 0 0 0 0 0 0 0 0 0 0 0 0 0 0 0 0 0 0 0 0 0 0 0 0 0
0 0 0 0 0 0 0 0 0 0 0 0 0 0 0 0 0 0 0 0 0 0 0 0 0 0 0 0 0 0 0 0 0 0 0 0 0 0 0 0 0 0 0
0 0 0 0 0 0 0 0 0 0 0 0 0 0 0 0 0 0 0 0 0 0 0 0 0 0 0 0 0 0 1 0 0 0 0 0 0 0 0 0 0 0 0
0 0 0 0 0 0 0 0 0 0 0 0 0 0 0 0 0 0 0 0 0 0 0 0 0 0 0 0 0 0 0 0 0 0 0 0 0 0 0 0 0 0 0
0 0 0 0 0 0 0 0 0 0 0 0 0 0 0 0 0 0 0 0 0 0 0 0 0 0 0 0 0 0 0 0 0 0 0 0 0 0 0 0 0 0 0
0 0 0 0 0 0 0 0 0 0 0 0 0 0 0 0 0 0 0 0 0 0 0 0 0 0 0 0 0 0 0 0 0 0 0 0 0 0 0 0 0 0 0
0 0 0 0 0 0 0 0 0 0 0 0 0 0 0 0 0 0 0 0 0 0 0 0 0 0 0 0 0 0 0 0 0 0 0 0 0 0 0 0 0 0 0
0 0 0 0 0 0 0 0 0 0 0 0 0 0 0 0 0 0 0 0 0 0 0 0 0 0 0 0 0 0 0 0 0 0 0 0 0 0 0 0 0 0 0
0 0 0 0 0 0 0 0 0 0 0 0 0 0 0 0 0 0 0 0 0 0 0 0 0 0 0 0 0 0 0 0 0 0 0 0 0 0 0 0 0 0 0
0 0 0 0 0 0 0 0 0 0 0 0 0 0 0 0 0 0 0 0 0 0 0 0 0 0 0 0 0 0 0 0 0 0 0 0 0 0 0 0 0 0 0
0 0 0 0 0 0 0 0 0 0 0 0 0 0 0 0 0 0 0 0 0 0 0 0 0 0 0 0 0 0 0 0 0 0 0 0 0 0 0 0 0 0 0
0 0 0 0 0 0 0 0 0 0 0 0 0 0 0 0 0 0 0 0 0 0 0 0 0 0 0 0 0 0 0 0 0 0 0 0 0 0 0 0 0 0 0
0 0 0 0 0 0 0 0 0 0 0 0 0 0 0 0 0 0 0 0 0 0 0 0 0 0 0 0 0 0 0 0 0 0 0 0 0 0 0 0 0 0 0
0 0 0 0 0 0 0 0 0 0 0 0 0 0 0 0 0 0 0 0 0 0 0 0 0 0 0 0 0 0 0 0 0 0 0 0 0 0 0 0 0 0 0
0 0 0 0 0 0 0 0 0 0 0 0 0 0 0 0 0 0 0 0 0 0 0 0 0 0 0 0 0 0 0 0 0 0 0 0 0 0 0 0 0 0 0
0 0 0 0 0 0 0 0 0 0 0 0 0 0 0 0 0 0 0 0 0 0 0 0 0 0 0 0 0 0 0 0 0 0 0 0 0 0 0 0 0 0 0
Wind_Speed
5 4 4 3 3 3 3 3 3 2 3 3 3 3 3 2 3 3 3 3 3 3 2 3 3 2 2 2 2 2 2 2 2 1 2 2 3 4 5 4 4 4 5
4 4 4 4 4 4 3 3 3 3 3 3 3 3 3 3 3 3 2 2 2 2 1 2 2 2 3 2 2 2 1 1 2 0 2 2 3 3 3 4 4 4 3
4 4 4 4 4 4 3 3 3 3 3 3 3 4 3 3 3 3 3 2 2 2 1 2 1 2 2 1 1 1 1 1 1 1 1 2 2 2 3 3 4 3 4
5 5 5 5 5 4 4 3 3 3 4 4 4 4 3 3 3 3 3 3 2 1 1 1 1 2 2 1 1 1 1 1 1 1 1 2 2 2 2 3 4 3 4
5 5 5 4 4 3 3 3 3 3 4 4 4 3 3 3 3 4 3 3 3 2 1 1 1 2 2 2 1 1 1 1 1 1 1 1 2 2 2 2 3 4 3
6 6 4 4 4 4 4 3 3 3 3 3 3 3 3 3 5 7 6 3 3 3 2 1 1 1 1 1 1 2 2 2 1 1 1 1 2 2 2 2 2 3 4
6 5 5 5 5 5 4 4 4 3 3 3 3 3 3 4 6 7 7 4 3 3 3 2 1 1 1 1 0 1 1 0 2 3 2 3 3 3 2 2 2 2 4
6 5 5 5 5 5 4 4 4 3 3 3 3 4 3 4 6 7 7 4 3 2 3 3 3 2 2 2 1 0 1 2 2 2 3 4 4 3 3 3 3 3 3
6 6 6 6 6 5 5 5 4 3 3 3 3 4 4 4 5 6 6 3 2 2 2 3 3 3 4 3 2 1 2 3 3 3 3 4 5 4 2 0 1 1 3
7 7 6 6 7 7 6 5 3 3 4 4 3 3 4 4 5 6 6 3 2 2 2 2 4 4 5 4 3 3 3 4 3 3 3 5 4 4 4 2 2 2 2
5 5 5 6 6 6 5 4 4 3 3 3 3 2 3 4 4 6 6 3 4 3 2 2 3 5 6 6 4 4 6 4 2 2 2 3 3 2 3 3 3 3 3
5 5 5 5 5 4 5 4 4 4 4 3 2 2 2 3 4 5 7 7 6 4 4 3 4 6 6 6 5 5 7 4 1 1 2 3 3 3 4 4 4 5 6
5 5 4 4 4 4 5 5 3 3 3 3 3 3 3 2 3 5 6 7 7 4 4 5 6 6 6 5 6 6 5 2 2 2 4 4 4 4 3 3 3 4 5
5 4 4 4 3 3 3 4 4 4 4 4 4 4 3 3 3 3 3 3 5 4 3 4 5 5 4 4 4 4 3 3 3 4 4 4 3 2 3 3 3 3 3
5 4 4 3 4 3 3 3 5 5 6 6 5 5 4 4 6 7 5 4 4 4 2 1 1 1 2 2 2 3 2 2 3 3 4 4 3 4 4 3 3 3 3
4 4 3 3 3 3 2 1 2 3 5 7 6 6 5 7 6 7 8 8 7 6 3 2 3 3 4 4 4 4 3 4 4 4 4 4 4 5 5 4 3 4 5
5 4 3 3 3 3 3 3 1 2 2 4 5 6 7 7 6 6 7 7 7 6 3 3 4 4 5 4 4 4 5 5 4 4 5 5 5 5 4 5 4 5 6
4 4 4 3 3 3 3 3 3 2 2 2 3 5 6 6 6 6 5 3 2 3 4 4 5 5 5 5 5 5 5 4 4 4 5 5 5 5 5 5 5 6 6
3 3 3 3 3 3 2 2 2 2 2 2 2 3 4 4 4 4 4 3 4 4 5 5 5 5 5 5 5 5 5 5 5 4 5 5 5 5 6 6 6 8 7
3 3 3 3 2 2 2 2 2 2 2 2 2 3 1 1 1 2 2 3 4 5 5 5 5 5 5 5 5 5 5 5 5 5 5 5 5 5 7 8 7 6 6
2 3 4 3 2 2 2 2 2 2 2 3 3 3 3 2 3 4 4 4 5 5 5 5 5 5 5 5 5 5 6 6 5 5 6 6 6 6 6 6 7 7 7
2 2 3 3 2 2 2 2 2 2 2 2 2 3 4 2 3 3 4 4 5 5 5 4 5 5 5 5 5 5 6 6 6 6 6 6 6 6 6 6 6 6 6
3 2 2 2 2 2 1 1 1 2 2 2 2 2 2 3 3 4 4 4 4 4 4 4 5 5 5 5 5 5 6 7 6 6 6 6 6 6 6 7 8 8 8
3 3 3 2 2 2 2 2 1 2 2 2 2 2 3 3 4 4 4 4 3 4 4 4 5 6 8 6 5 5 6 7 6 6 8 7 7 7 7 7 8 9 9
2 2 2 2 2 2 2 2 2 2 2 2 2 2 3 3 3 4 3 3 4 4 4 4 4 5 7 8 8 7 9 11 10 7 6 6 8 8 8 8 8 8 8
2 2 2 2 2 2 2 2 2 2 2 2 2 2 2 3 3 3 3 3 3 3 4 4 5 6 7 7 8 9 11 11 11 11 7 6 7 8 8 7 9 8 9
Wind_Direction
183 184 177 184 177 168 170 178 178 173 161 153 147 133 127 119 112 103 96 91 88 72 61 74 65 62 64 54 62 71 73 104 133 300 314 327 350 357 353 358 5 10 5
181 178 183 177 167 170 179 186 179 174 169 161 152 142 140 137 131 126 126 109 111 105 89 84 66 71 61 55 67 73 77 100 134 281 329 338 338 339 343 351 356 0 356
171 171 174 174 176 184 188 181 176 172 167 161 152 155 157 154 147 149 149 144 140 146 148 133 124 99 71 57 68 72 60 70 101 127 313 319 319 335 343 343 349 345 346
169 171 178 186 189 187 179 173 171 164 161 165 165 167 166 162 163 162 155 149 145 155 167 159 162 162 171 156 108 103 96 75 73 90 332 325 321 325 354 343 341 340 338
169 177 191 187 176 165 164 167 162 161 166 163 159 163 165 169 180 172 165 164 164 171 179 187 190 188 181 166 151 162 134 107 85 68 334 337 331 336 328 318 323 321 319
178 189 183 167 163 168 170 161 158 163 158 152 164 168 179 198 193 182 170 169 175 180 190 219 233 245 236 206 172 158 150 152 170 167 235 258 279 274 289 302 314 334 319
182 181 173 170 170 176 169 158 167 173 163 167 181 179 195 212 202 190 183 170 177 184 188 194 215 224 200 163 212 14 349 230 188 182 202 237 250 250 254 281 276 269 270
179 179 176 173 173 168 160 170 179 170 171 180 189 193 198 216 208 200 191 174 170 193 199 197 201 225 210 177 157 103 305 295 270 225 212 236 243 239 217 231 247 268 275
184 189 187 180 175 169 175 185 182 170 178 186 187 188 199 231 222 208 187 161 177 219 227 214 205 215 228 205 170 206 276 289 282 273 266 277 287 285 264 207 310 312 300
199 195 188 182 180 183 187 182 172 172 186 183 190 197 201 219 224 213 190 168 184 223 240 241 229 222 232 224 198 200 244 264 276 301 302 302 295 292 289 232 212 232 267
191 177 176 181 185 184 179 173 166 164 162 172 192 214 216 223 229 219 204 187 194 204 221 238 241 239 238 234 221 212 237 247 241 259 280 290 293 285 280 259 226 216 232
160 166 176 179 181 175 168 171 165 162 166 184 196 231 245 243 233 231 221 212 202 197 220 231 236 241 242 240 235 240 250 254 232 248 266 271 269 270 269 265 253 242 237
156 171 176 171 176 168 167 170 166 169 177 192 197 219 242 241 246 245 236 224 216 212 225 228 236 246 251 253 252 251 248 231 220 239 253 256 249 254 266 278 276 267 265
164 173 169 167 172 170 171 174 176 183 191 197 205 220 232 238 237 235 236 234 228 228 238 247 249 254 246 251 262 263 243 224 223 236 249 255 255 258 260 257 266 275 283
163 166 167 170 171 177 185 196 197 205 200 200 210 208 209 231 236 222 214 219 214 218 209 226 245 258 256 262 262 261 252 247 245 242 243 256 262 264 264 254 248 253 259
158 166 170 170 172 174 177 217 245 231 228 223 219 214 226 232 239 224 224 228 225 211 191 221 232 233 238 243 246 254 248 244 243 242 244 248 254 258 265 261 249 249 263
169 172 170 170 171 175 178 183 229 296 267 240 237 234 236 242 242 234 227 226 224 201 206 226 232 235 239 239 238 239 244 245 240 239 245 248 250 254 257 260 258 260 266
167 171 167 176 176 179 186 192 195 202 249 280 270 252 248 249 249 243 227 205 231 216 219 230 236 239 239 239 239 241 246 248 242 243 245 247 246 249 254 257 256 257 265
164 169 169 166 169 175 178 180 188 200 221 255 284 284 266 255 256 247 212 208 224 233 232 238 240 240 240 240 241 240 241 244 245 243 246 247 246 246 253 256 258 262 262
173 173 157 157 158 161 166 176 194 207 222 240 252 259 264 229 256 255 231 226 232 238 238 240 243 243 242 241 240 239 243 246 245 244 248 249 247 244 251 255 256 258 260
163 170 161 152 167 179 184 195 205 209 224 241 255 257 238 239 241 246 246 242 240 242 243 242 244 245 244 244 241 240 243 247 243 243 247 250 250 249 249 250 253 255 260
158 164 170 173 176 181 194 202 203 212 226 243 275 281 254 250 246 251 252 254 251 245 241 241 247 246 241 240 241 244 248 251 250 247 248 252 253 253 251 250 253 255 259
149 151 153 163 167 179 184 198 213 221 238 251 258 269 267 262 258 256 259 262 262 260 255 248 251 255 251 245 238 236 243 249 249 248 250 254 255 255 251 251 252 257 259
150 155 161 164 161 171 189 209 223 232 240 253 260 262 262 265 270 271 269 269 267 268 264 258 255 257 260 261 254 245 245 251 253 249 246 250 254 257 257 257 256 257 261
149 157 164 171 178 186 197 211 222 234 248 257 260 265 270 273 276 278 277 273 271 271 274 275 271 267 267 268 268 265 265 264 263 259 252 250 254 255 257 259 260 262 261
149 159 173 180 187 195 205 219 230 239 248 258 262 265 269 273 277 281 284 284 284 285 287 287 283 282 282 280 276 276 277 275 270 265 259 255 256 257 256 257 259 261 262